Tracking 17140 objects as of 2-July-2015
HD Live streaming from Space Station

INTELSAT 26 (JCSAT 4)

Track INTELSAT 26 (JCSAT 4) now!
INTELSAT 26 (JCSAT 4) is classified as:


NORAD ID: 24732
Int'l Code: 1997-007A
Perigee: 35,773.5 km
Apogee: 35,812.7 km
Inclination: 6.3 °
Period: 1,436.1 minutes
Semi major axis: 42164 km
RCS: 25.1785 m2 (large)
Launch date: February 17, 1997
Source: International Telecommunications Satellite Organization (ITSO)

12 C-band, 12 Ku-band; relay voice, data, television signals via Ku-band to eastern Asia, Australia, New Zealand, India; via C-band to eastern and southern Asia and Hawaii. Digital TV.
Your satellite tracking list
Your tracking list is empty





NASA's NSSDC Master Catalog

Two Line Element Set (TLE):
1 24732U 97007A   15181.59318953 -.00000009  00000-0  00000+0 0  9999
2 24732 006.2868 055.6998 0004646 029.1188 112.8648 01.00273953 67150

Source of the keplerian elements: AFSPC

N2YO: 237